Hourly Data Report for October 02, 2016

All times are specified in Local Standard Time (LST). Add 1 hour to adjust for Daylight Saving Time where and when it is observed.

SAINT JOHN A
NEW BRUNSWICK

45°18'58.000" N
65°53'24.000" W
108.80 m
8104901
71609
YSJ

Download Data

Hourly Data (October 2016)
Hourly Data Report for October 2, 2016
Temp Definition
°C
Dew Point Temp Definition
°C
Rel Hum Definition
%
Wind Dir Definition
10's deg

Wind Spd Definition
km/h
Visibility Definition
km
Stn Press Definition
kPa
Hmdx Definition


Wind Chill Definition


Weather Definition


TIME
00:00 Legend Double Dagger 10.6 10.6 100 36 2 24.1 101.12     LegendNANA
01:00 Legend Double Dagger 10.6 10.6 100 6 4 24.1 101.08     Rain
02:00 Legend Double Dagger 10.7 10.7 100 35 4 16.1 101.06     Rain
03:00 Legend Double Dagger 10.6 10.6 100 1 5 16.1 101.00     Rain
04:00 Legend Double Dagger 10.8 10.8 100 36 1 16.1 101.02     Rain
05:00 Legend Double Dagger 10.7 10.7 100 36 2 16.1 100.99     Rain
06:00 Legend Double Dagger 10.5 10.5 100 36 3 16.1 100.94     Rain
07:00 Legend Double Dagger 10.4 10.4 100 9 5 16.1 100.94     Rain
08:00 Legend Double Dagger 10.5 10.5 100 28 4 16.1 100.93     Rain
09:00 Legend Double Dagger 11.4 11.4 100 2 4 16.1 100.89     Rain
10:00 Legend Double Dagger 11.7 11.7 100 4 5 12.9 100.85     Rain
11:00 Legend Double Dagger 11.6 11.6 100 12 15 16.1 100.76     Rain
12:00 Legend Double Dagger 12.0 11.4 96 27 4 24.1 100.82     LegendNANA
13:00 Legend Double Dagger 13.1 11.8 92 1 10 24.1 100.68     LegendNANA
14:00 Legend Double Dagger 14.1 10.2 77 13 9 24.1 100.60     Mostly Cloudy
15:00 Legend Double Dagger 14.3 10.8 79 10 8 24.1 100.49     LegendNANA
16:00 Legend Double Dagger 13.8 11.4 85 15 6 24.1 100.41     LegendNANA
17:00 Legend Double Dagger 13.1 10.5 84 17 4 24.1 100.36     Mostly Cloudy
18:00 Legend Double Dagger 12.5 10.4 87 18 4 24.1 100.30     LegendNANA
19:00 Legend Double Dagger 12.0 10.9 93 21 5 24.1 100.31     LegendNANA
20:00 Legend Double Dagger 11.9 11.4 97 0 1 24.1 100.28     Cloudy
21:00 Legend Double Dagger 11.9 10.2 89 36 1 24.1 100.21     LegendNANA
22:00 Legend Double Dagger 11.6 11.6 100 22 6 19.3 100.17     LegendNANA
23:00 Legend Double Dagger 11.7 10.8 94 26 4 16.1 100.10     Cloudy

Notes on Data Quality.

Legend

  • E = Estimated
  • M = Missing
  • NA = Not Available
  • ‡ = Partner data that is not subject to review by the National Climate Archives
Date modified: